Location: Downe
(51.3167°N, 0.0500°E)
Time: 16:42:35
(UTC+00:00)

NOAA 6 - Pass Details

Date: 17 November 2019
Orbit: 771 x 788 km, 98.6° (Epoch: 14 December)

Event Time Altitude Azimuth Distance (km) Brightness Sun altitude
Rises 05:45:59 0° 15° (NNE) 3,270 7.3 -14.5°
Reaches altitude 10° 05:48:19 10° 17° (NNE) 2,336 6.6 -14.1°
Maximum altitude 05:53:28 81° 105° (ESE) 790 4.1 -13.3°
Drops below altitude 10° 05:58:35 10° 193° (SSW) 2,313 6.5 -12.5°
Sets 06:00:53 0° 194° (SSW) 3,235 7.3 -12.2°
